FW8543 Weather Reports


Display with metric or nautical units.
time (UTC)temp
F
wind
direction
speed
MPH
gust
MPH
rain 1hr
in
rain 24hr
in
rain mn
in
humidity
%
barometer
mb
20260505004023 71 0 0.0 2.0 0.00 0.00 0.00 48 1015.5
20260505003524 72 0 0.0 2.0 0.00 0.00 0.00 50 1015.5
20260505003038 72 0 0.0 2.0 0.00 0.00 0.00 49 1015.5
20260505002522 73 0 0.0 1.0 0.00 0.00 0.00 47 1015.4
20260505002022 74 0 0.0 1.0 0.00 0.00 0.00 45 1015.4
20260505001540 74 0 0.0 2.0 0.00 0.00 0.00 44 1015.2
20260505001022 75 0 0.0 2.0 0.00 0.00 0.00 43 1015.2
20260505000522 75 102 0.0 2.0 0.00 0.00 0.00 39 1015.2
20260505000044 75 104 0.0 2.0 0.00 0.00 0.00 39 1015.2
20260504235523 75 0 0.0 1.0 0.00 0.00 0.00 40 1015.3
20260504235024 75 0 0.0 4.0 0.00 0.00 0.00 40 1015.3
20260504234541 75 0 1.0 4.0 0.00 0.00 0.00 39 1015.4
20260504234026 76 209 0.0 5.0 0.00 0.00 0.00 40 1015.4
20260504233525 76 171 1.0 5.0 0.00 0.00 0.00 39 1015.5
20260504233052 76 173 2.0 5.0 0.00 0.00 0.00 37 1015.4
20260504232525 77 170 2.0 5.0 0.00 0.00 0.00 38 1015.4
20260504232024 76 142 2.0 5.0 0.00 0.00 0.00 37 1015.4
20260504231544 77 205 1.0 6.0 0.00 0.00 0.00 38 1015.4
20260504231028 77 200 3.0 6.0 0.00 0.00 0.00 36 1015.4
20260504230526 77 140 1.0 5.0 0.00 0.00 0.00 37 1015.3
20260504230050 78 223 2.0 6.0 0.00 0.00 0.00 36 1015.3
20260504225526 78 217 1.0 6.0 0.00 0.00 0.00 35 1015.3
20260504225027 78 157 2.0 5.0 0.00 0.00 0.00 36 1015.2
20260504224545 78 211 0.0 4.0 0.00 0.00 0.00 40 1015.2
20260504224025 77 0 1.0 5.0 0.00 0.00 0.00 38 1015.1
20260504223529 78 0 2.0 5.0 0.00 0.00 0.00 35 1015.2
20260504223038 79 191 2.0 4.0 0.00 0.00 0.00 36 1015.2
20260504222526 78 0 1.0 7.0 0.00 0.00 0.00 35 1015.3
20260504222025 78 188 2.0 7.0 0.00 0.00 0.00 32 1015.4
20260504221540 78 173 3.0 7.0 0.00 0.00 0.00 32 1015.4
20260504221026 79 203 2.0 7.0 0.00 0.00 0.00 33 1015.3
20260504220525 79 163 2.0 7.0 0.00 0.00 0.00 30 1015.3
20260504220041 79 192 2.0 7.0 0.00 0.00 0.00 34 1015.4
20260504215529 79 234 3.0 8.0 0.00 0.00 0.00 35 1015.3
20260504215025 79 240 3.0 8.0 0.00 0.00 0.00 31 1015.3
20260504214537 80 0 1.0 7.0 0.00 0.00 0.00 34 1015.3
20260504214030 79 171 2.0 10.0 0.00 0.00 0.00 32 1015.4
20260504213526 79 184 3.0 10.0 0.00 0.00 0.00 36 1015.4
20260504213038 79 167 2.0 8.0 0.00 0.00 0.00 36 1015.3
20260504212526 79 176 3.0 9.0 0.00 0.00 0.00 34 1015.3
20260504212026 80 158 3.0 9.0 0.00 0.00 0.00 34 1015.3
20260504211539 79 311 1.0 7.0 0.00 0.00 0.00 38 1015.3
20260504211029 79 140 1.0 8.0 0.00 0.00 0.00 36 1015.3
20260504210525 79 258 2.0 8.0 0.00 0.00 0.00 33 1015.3
20260504210040 80 146 3.0 8.0 0.00 0.00 0.00 35 1015.5
20260504205527 80 162 2.0 7.0 0.00 0.00 0.00 33 1015.4
20260504205025 80 209 2.0 9.0 0.00 0.00 0.00 37 1015.3
20260504204547 80 199 3.0 9.0 0.00 0.00 0.00 35 1015.4
20260504204027 80 165 2.0 8.0 0.00 0.00 0.00 40 1015.4
20260504203522 80 258 1.0 11.0 0.00 0.00 0.00 35 1015.4
20260504203053 80 217 3.0 11.0 0.00 0.00 0.00 34 1015.4
20260504202522 82 317 2.0 7.0 0.00 0.00 0.00 34 1015.5
20260504202022 81 0 1.0 7.0 0.00 0.00 0.00 37 1015.6
20260504201540 81 203 2.0 7.0 0.00 0.00 0.00 36 1015.6
20260504201026 81 211 1.0 7.0 0.00 0.00 0.00 36 1015.6
20260504200521 81 299 1.0 7.0 0.00 0.00 0.00 37 1015.7
20260504200038 81 0 1.0 5.0 0.00 0.00 0.00 36 1015.7
20260504195521 80 244 2.0 5.0 0.00 0.00 0.00 38 1015.7
20260504195022 81 165 2.0 5.0 0.00 0.00 0.00 33 1015.9
20260504194538 80 0 2.0 5.0 0.00 0.00 0.00 35 1016.1
20260504194021 80 329 2.0 5.0 0.00 0.00 0.00 35 1016.1
20260504193522 80 0 1.0 4.0 0.00 0.00 0.00 34 1016.1
20260504193038 79 295 1.0 3.0 0.00 0.00 0.00 37 1016.2
20260504192522 79 355 1.0 6.0 0.00 0.00 0.00 33 1016.3
20260504192023 78 177 1.0 6.0 0.00 0.00 0.00 36 1016.4
20260504191542 78 196 2.0 6.0 0.00 0.00 0.00 33 1016.5
20260504191022 79 280 3.0 8.0 0.00 0.00 0.00 36 1016.5
20260504190522 78 0 2.0 9.0 0.00 0.00 0.00 38 1016.6
20260504190101 79 173 3.0 9.0 0.00 0.00 0.00 37 1016.7
20260504185521 79 0 2.0 6.0 0.00 0.00 0.00 35 1016.8
20260504185021 78 209 1.0 6.0 0.00 0.00 0.00 39 1017.0
20260504184540 78 180 1.0 6.0 0.00 0.00 0.00 38 1017.0
20260504184022 78 0 1.0 7.0 0.00 0.00 0.00 41 1017.1
20260504183522 77 212 3.0 9.0 0.00 0.00 0.00 41 1017.2
20260504183039 77 181 2.0 9.0 0.00 0.00 0.00 41 1017.3
20260504182530 76 271 2.0 7.0 0.00 0.00 0.00 41 1017.3
20260504182026 76 292 0.0 5.0 0.00 0.00 0.00 40 1017.2
20260504181542 76 338 2.0 6.0 0.00 0.00 0.00 40 1017.2
20260504181021 76 203 3.0 9.0 0.00 0.00 0.00 41 1017.4
20260504180523 75 219 1.0 9.0 0.00 0.00 0.00 39 1017.4
20260504180039 76 165 2.0 8.0 0.00 0.00 0.00 39 1017.4
20260504175524 76 156 3.0 8.0 0.00 0.00 0.00 41 1017.4
20260504175023 76 300 1.0 5.0 0.00 0.00 0.00 41 1017.4
20260504174536 75 288 1.0 7.0 0.00 0.00 0.00 39 1017.5
20260504174022 75 296 3.0 7.0 0.00 0.00 0.00 38 1017.6
20260504173522 75 198 2.0 6.0 0.00 0.00 0.00 40 1017.7
20260504173039 75 208 3.0 6.0 0.00 0.00 0.00 43 1017.7
20260504172522 75 0 1.0 5.0 0.00 0.00 0.00 42 1017.8
20260504172025 75 263 1.0 8.0 0.00 0.00 0.00 42 1017.8
20260504171539 75 0 2.0 8.0 0.00 0.00 0.00 41 1017.7
20260504171024 74 232 1.0 5.0 0.00 0.00 0.00 43 1017.7
20260504170522 74 341 2.0 5.0 0.00 0.00 0.00 40 1017.7
20260504151021 68 0 1.0 6.0 0.00 0.00 0.00 49 1019.3
20260504150525 68 295 0.0 6.0 0.00 0.00 0.00 52 1019.3
20260504141022 62 336 1.0 4.0 0.00 0.00 0.00 67 1019.4
20260504140525 61 0 0.0 3.0 0.00 0.00 0.00 69 1019.4
20260504130522 52 0 0.0 1.0 0.00 0.00 0.00 87 1019.3
20260504110521 45 0 0.0 0.0 0.00 0.00 0.00 90 1018.6
20260504100524 45 0 0.0 0.0 0.00 0.00 0.00 89 1018.6
20260504081542 47 0 0.0 0.0 0.00 0.00 0.00 88 1018.5
20260504081021 47 0 0.0 0.0 0.00 0.00 0.00 88 1018.5
20260504080521 47 0 0.0 0.0 0.00 0.00 0.00 88 1018.5
20260504050523 51 0 0.0 0.0 0.00 0.00 0.00 82 1019.3
20260504045525 52 0 0.0 0.0 0.00 0.00 0.00 83 1019.3
20260504045023 52 0 0.0 0.0 0.00 0.00 0.00 82 1019.3
20260504044536 52 0 0.0 0.0 0.00 0.00 0.00 82 1019.3
20260504044028 52 0 0.0 0.0 0.00 0.00 0.00 82 1019.2
20260504043523 52 0 0.0 2.0 0.00 0.00 0.00 83 1019.2
20260504043036 52 0 0.0 2.0 0.00 0.00 0.00 82 1019.1
20260504042525 52 0 0.0 0.0 0.00 0.00 0.00 81 1019.0
20260504042022 52 0 0.0 0.0 0.00 0.00 0.00 80 1018.9
20260504041538 53 0 0.0 0.0 0.00 0.00 0.00 79 1018.9
20260504041022 54 0 0.0 0.0 0.00 0.00 0.00 78 1018.9
20260504040523 54 0 0.0 0.0 0.00 0.00 0.00 78 1018.9
20260504040039 54 0 0.0 0.0 0.00 0.00 0.00 77 1018.9
20260504035523 55 0 0.0 0.0 0.00 0.00 0.00 76 1019.0
20260504035023 55 0 0.0 1.0 0.00 0.00 0.00 77 1018.9
20260504034539 55 0 0.0 2.0 0.00 0.00 0.00 76 1018.9
20260504034028 55 0 0.0 2.0 0.00 0.00 0.00 76 1018.9
20260504033523 55 0 0.0 2.0 0.00 0.00 0.00 75 1018.9
20260504033040 56 0 0.0 1.0 0.00 0.00 0.00 76 1018.9
20260504032523 55 0 0.0 2.0 0.00 0.00 0.00 75 1018.8
20260504032023 55 0 0.0 3.0 0.00 0.00 0.00 75 1018.8
20260504031538 56 0 0.0 3.0 0.00 0.00 0.00 75 1018.9
20260504031023 56 0 0.0 3.0 0.00 0.00 0.00 74 1019.0
20260504030521 57 0 0.0 3.0 0.00 0.00 0.00 73 1019.0
20260504030041 57 111 1.0 3.0 0.00 0.00 0.00 74 1018.9
20260504025523 58 0 0.0 3.0 0.00 0.00 0.00 74 1018.8
20260504025023 57 0 0.0 3.0 0.00 0.00 0.00 73 1018.8
20260504024540 57 0 0.0 2.0 0.00 0.00 0.00 74 1018.7
20260504024023 57 0 0.0 2.0 0.00 0.00 0.00 73 1018.8
20260504023523 57 0 0.0 2.0 0.00 0.00 0.00 73 1018.7
20260504023040 57 0 0.0 2.0 0.00 0.00 0.00 72 1018.7
20260504022525 58 0 0.0 2.0 0.00 0.00 0.00 72 1018.7
20260504022023 58 88 0.0 2.0 0.00 0.00 0.00 71 1018.6
20260504021539 58 0 0.0 3.0 0.00 0.00 0.00 71 1018.6
20260504021023 58 109 0.0 3.0 0.00 0.00 0.00 71 1018.4
20260504020523 59 0 0.0 2.0 0.00 0.00 0.00 70 1018.4
20260504020037 60 0 0.0 2.0 0.00 0.00 0.00 69 1018.3
20260504015523 60 0 0.0 1.0 0.00 0.00 0.00 67 1018.3
20260504015030 60 0 0.0 1.0 0.00 0.00 0.00 67 1018.2
20260504014549 61 0 0.0 1.0 0.00 0.00 0.00 66 1018.1
20260504014025 61 0 0.0 3.0 0.00 0.00 0.00 67 1018.1
20260504013523 61 0 0.0 3.0 0.00 0.00 0.00 64 1018.0
20260504013042 61 0 1.0 3.0 0.00 0.00 0.00 62 1018.0
20260504012525 62 0 0.0 3.0 0.00 0.00 0.00 61 1018.0
20260504012024 63 105 0.0 3.0 0.00 0.00 0.00 60 1017.9
20260504011541 63 0 0.0 2.0 0.00 0.00 0.00 57 1017.9
20260504011022 64 105 0.0 2.0 0.00 0.00 0.00 58 1017.9
20260504010527 64 0 0.0 2.0 0.00 0.00 0.00 57 1017.8
20260504010039 65 0 0.0 3.0 0.00 0.00 0.00 56 1017.8
20260504005523 65 0 0.0 3.0 0.00 0.00 0.00 55 1017.8
20260504005024 66 0 0.0 2.0 0.00 0.00 0.00 52 1017.7
20260504004538 66 0 0.0 1.0 0.00 0.00 0.00 53 1017.7